Flag for Dominican Republic Weather past 2 weeks in Puerto Plata, Dominican Republic

Now
81 °F

Passing clouds.


Feels Like: 86 °F
Forecast: 80 / 87 °F
Wind: 7 mph from East

Location: Puerto Plata International

Current Time: Jul 4, 2015 at 8:35:09 AM

Latest Report: Jul 4, 2015 at 8:00 AM


Visibility: N/A

Pressure: 30.07 "Hg

Humidity: 84%

Dew point: 75 °F

Location of Puerto PlataLocation

Historic Weather in Puerto Plata — Graph

°F

Puerto Plata temperature yesterday

Maximum temperature yesterday: 91 °F (at 12:00 PM)
Minimum temperature yesterday: 77 °F (at 5:00 AM)
Average temperature yesterday: 85 °F

Past Weeks' High & Low Weather Summary

 TemperatureHumidityPressure
High93 °F (Jun 19, 1:00 PM)100% (Jun 21, 5:00 AM)30.12 "Hg (Jun 21, 5:00 AM)
Low73 °F (Jun 22, 7:00 AM)49% (Jun 23, 3:00 PM)29.98 "Hg (Jun 19, 3:00 PM)
Average85 °F73%30.06 "Hg
* Reported Jun 19 7:00 AM — Jul 4 7:00 AM, Puerto Plata, Weather by CustomWeather, © 2015

Note: Actual official high and low records may vary slightly from our data, if they occured in-between our weather recording intervals... More about our weather records

Advertising

Puerto Plata weather history for previous 24 hours

 ConditionsComfort  
Time TempWeatherWind HumidityBarometerVisibility
7:00 AM
Sat, Jul 4
75 °FPassing clouds.No wind100%30.07 "HgN/A
5:00 AM77 °FPassing clouds.No wind94%30.04 "HgN/A
2:00 AM79 °FPassing clouds.No wind94%30.04 "HgN/A
11:00 PM
Fri, Jul 3
81 °FPassing clouds.9 mph84%30.04 "HgN/A
8:00 PM84 °FPassing clouds.12 mph70%29.98 "HgN/A
7:00 PM84 °FPassing clouds.12 mph70%29.98 "HgN/A
6:00 PM86 °FPassing clouds.16 mph66%29.98 "HgN/A
5:00 PM86 °FPassing clouds.21 mph66%29.98 "HgN/A
4:00 PM90 °FPassing clouds.21 mph59%29.98 "HgN/A
3:00 PM91 °FPassing clouds.18 mph56%29.98 "HgN/A
2:00 PM91 °FPassing clouds.17 mph56%30.01 "HgN/A
1:00 PM91 °FPassing clouds.23 mph52%30.04 "HgN/A
12:00 PM91 °FScattered clouds.10 mph52%30.07 "HgN/A
11:00 AM90 °FScattered clouds.21 mph55%30.07 "HgN/A
10:00 AM88 °FPassing clouds.12 mph62%30.07 "HgN/A
9:00 AM84 °FPassing clouds.14 mph70%30.07 "HgN/A
8:00 AM81 °FPassing clouds.No wind79%30.07 "HgN/A
Weather by CustomWeather, © 2015

See weather overviewHow to use our weather pages